Tracking 29799 objects as of 11-Oct-2024
HD Live streaming from Space Station
objects crossing your sky now

STARLINK-4575

Track STARLINK-4575 now!
10-day predictions
STARLINK-4575 is classified as:


NORAD ID: 53565
Int'l Code: 2022-101AQ
Perigee: 545.6 km
Apogee: 547.8 km
Inclination: 53.2 °
Period: 95.4 minutes
Semi major axis: 6917 km
RCS: Unknown
Launch date: August 19, 2022
Source: United States (US)
Launch site: AIR FORCE EASTERN TEST RANGE (AFETR)
Your satellite tracking list
Your tracking list is empty




NASA's NSSDC Master Catalog

Two Line Element Set (TLE):
1 53565U 22101AQ  24285.20740446  .00026029  00000-0  16448-2 0  9992
2 53565  53.2160 203.8732 0001593  94.3936 265.7238 15.08899483118772
Source of the keplerian elements: AFSPC